GLO8001 SBPJ-SBBE

Flight info

Callsign GLO8001
Flight time 1h 24m
Altitude 37000
Route MASVA UZ26 IROMU
Aircraft B737/M-V/N

Departure

Time 2026-05-09 20:16
Airport Brigadeiro Lysias Rodrigues Airport (SBPJ)

Arrival

Time 2026-05-09 21:40
Airport Val de Cans/Júlio Cezar Ribeiro International Airport (SBBE)
Time Latitude Longitude Altitude Speed Heading
2026-05-09 20:03 -10.29462 -48.35762 757 ft 0 kts 204°
2026-05-09 20:08 -10.29456 -48.35760 752 ft 3 kts 182°
2026-05-09 20:08 -10.29438 -48.35767 753 ft 0 kts 129°
2026-05-09 20:10 -10.29444 -48.35760 752 ft 2 kts 129°
2026-05-09 20:10 -10.29457 -48.35741 752 ft 4 kts 120°
2026-05-09 20:11 -10.29474 -48.35710 754 ft 6 kts 117°
2026-05-09 20:11 -10.29488 -48.35667 758 ft 7 kts 95°
2026-05-09 20:11 -10.29460 -48.35624 758 ft 9 kts 36°
2026-05-09 20:11 -10.29400 -48.35585 758 ft 11 kts 32°
2026-05-09 20:12 -10.29378 -48.35571 756 ft 0 kts 32°
2026-05-09 20:13 -10.29335 -48.35543 758 ft 14 kts 32°
2026-05-09 20:13 -10.29319 -48.35455 758 ft 14 kts 115°
2026-05-09 20:14 -10.29377 -48.35358 763 ft 19 kts 124°
2026-05-09 20:14 -10.29481 -48.35201 767 ft 34 kts 123°
2026-05-09 20:14 -10.29607 -48.35008 771 ft 30 kts 126°
2026-05-09 20:14 -10.29711 -48.34849 774 ft 23 kts 104°
2026-05-09 20:15 -10.29742 -48.34748 776 ft 13 kts 171°
2026-05-09 20:15 -10.29742 -48.34816 774 ft 13 kts 303°
2026-05-09 20:15 -10.29580 -48.35065 769 ft 85 kts 303°
2026-05-09 20:15 -10.29102 -48.35788 748 ft 157 kts 303°
2026-05-09 20:16 -10.28438 -48.36826 1064 ft 187 kts 301°
2026-05-09 20:16 -10.27687 -48.37985 1434 ft 212 kts 303°
2026-05-09 20:16 -10.26848 -48.39249 1839 ft 219 kts 304°
2026-05-09 20:16 -10.25989 -48.40550 2228 ft 224 kts 304°
2026-05-09 20:17 -10.24974 -48.41710 2574 ft 225 kts 328°
2026-05-09 20:17 -10.23569 -48.42397 2983 ft 225 kts 344°
2026-05-09 20:17 -10.22023 -48.42641 3342 ft 226 kts
2026-05-09 20:17 -10.20432 -48.42556 3664 ft 235 kts
2026-05-09 20:18 -10.18721 -48.42403 3812 ft 256 kts
2026-05-09 20:18 -10.16898 -48.42232 4123 ft 267 kts
2026-05-09 20:18 -10.15030 -48.42060 4578 ft 271 kts
2026-05-09 20:18 -10.13135 -48.41889 5041 ft 274 kts
2026-05-09 20:19 -10.11232 -48.41721 5569 ft 275 kts
2026-05-09 20:19 -10.09327 -48.41555 6440 ft 277 kts
2026-05-09 20:19 -10.07387 -48.41386 7208 ft 281 kts
2026-05-09 20:19 -10.05432 -48.41218 8057 ft 283 kts
2026-05-09 20:20 -10.03472 -48.41050 8606 ft 287 kts
2026-05-09 20:20 -10.01480 -48.40880 8903 ft 287 kts
2026-05-09 20:20 -9.99472 -48.40709 8919 ft 292 kts
2026-05-09 20:20 -9.97459 -48.40538 8924 ft 289 kts
2026-05-09 20:21 -9.95453 -48.40368 8927 ft 288 kts
2026-05-09 20:21 -9.93461 -48.40198 8926 ft 287 kts
2026-05-09 20:21 -9.91469 -48.40029 8927 ft 287 kts
2026-05-09 20:21 -9.89478 -48.39859 8929 ft 287 kts
2026-05-09 20:22 -9.87486 -48.39690 8928 ft 288 kts
2026-05-09 20:22 -9.85480 -48.39519 8927 ft 289 kts
2026-05-09 20:22 -9.83496 -48.39350 8927 ft 289 kts
2026-05-09 20:22 -9.81487 -48.39174 8935 ft 291 kts
2026-05-09 20:23 -9.79459 -48.38937 9353 ft 296 kts
2026-05-09 20:23 -9.77414 -48.38677 10200 ft 296 kts
2026-05-09 20:23 -9.75308 -48.38406 10561 ft 317 kts
2026-05-09 20:23 -9.73043 -48.38119 10763 ft 339 kts
2026-05-09 20:24 -9.70665 -48.37821 11277 ft 348 kts
2026-05-09 20:24 -9.68258 -48.37523 12020 ft 349 kts
2026-05-09 20:24 -9.65836 -48.37224 12736 ft 351 kts
2026-05-09 20:24 -9.63399 -48.36923 13445 ft 354 kts
2026-05-09 20:25 -9.60948 -48.36678 14090 ft 355 kts
2026-05-09 20:25 -9.58460 -48.36648 14700 ft 358 kts 358°
2026-05-09 20:25 -9.55962 -48.36705 15269 ft 361 kts 358°
2026-05-09 20:25 -9.53467 -48.36782 15833 ft 364 kts 358°
2026-05-09 20:26 -9.50919 -48.36856 16420 ft 368 kts 358°
2026-05-09 20:26 -9.48351 -48.36919 16979 ft 371 kts 358°
2026-05-09 20:26 -9.45758 -48.36973 17526 ft 374 kts 358°
2026-05-09 20:26 -9.44032 -48.37004 17904 ft 376 kts 359°
2026-05-09 20:27 -9.40508 -48.37060 18571 ft 380 kts 359°
2026-05-09 20:27 -9.38749 -48.37086 18874 ft 382 kts 359°
2026-05-09 20:27 -9.36078 -48.37124 19337 ft 385 kts 359°
2026-05-09 20:27 -9.32473 -48.37174 19943 ft 389 kts
2026-05-09 20:28 -9.30668 -48.37198 20233 ft 392 kts
2026-05-09 20:28 -9.27925 -48.37235 20665 ft 395 kts
2026-05-09 20:28 -9.25193 -48.37272 21096 ft 398 kts
2026-05-09 20:29 -9.19612 -48.37348 21952 ft 403 kts
2026-05-09 20:29 -9.16798 -48.37387 22369 ft 406 kts
2026-05-09 20:29 -9.13970 -48.37425 22784 ft 408 kts
2026-05-09 20:29 -9.11119 -48.37464 23181 ft 411 kts
2026-05-09 20:30 -9.08253 -48.37503 23552 ft 414 kts
2026-05-09 20:30 -9.05350 -48.37543 23866 ft 416 kts
2026-05-09 20:30 -9.02447 -48.37583 24169 ft 419 kts
2026-05-09 20:30 -8.99521 -48.37623 24486 ft 421 kts
2026-05-09 20:31 -8.96579 -48.37664 24807 ft 424 kts
2026-05-09 20:31 -8.93616 -48.37704 25100 ft 426 kts
2026-05-09 20:31 -8.90642 -48.37745 25398 ft 429 kts
2026-05-09 20:31 -8.87647 -48.37786 25696 ft 431 kts
2026-05-09 20:32 -8.84678 -48.37827 25985 ft 434 kts
2026-05-09 20:32 -8.81645 -48.37868 26277 ft 436 kts
2026-05-09 20:32 -8.78599 -48.37910 26560 ft 439 kts
2026-05-09 20:32 -8.75535 -48.37952 26845 ft 441 kts
2026-05-09 20:33 -8.72457 -48.37994 27124 ft 444 kts
2026-05-09 20:33 -8.69361 -48.38037 27403 ft 446 kts
2026-05-09 20:33 -8.66254 -48.38079 27670 ft 448 kts
2026-05-09 20:33 -8.63125 -48.38122 27941 ft 451 kts
2026-05-09 20:34 -8.59983 -48.38167 28200 ft 453 kts
2026-05-09 20:34 -8.56821 -48.38214 28459 ft 455 kts
2026-05-09 20:34 -8.53643 -48.38261 28713 ft 457 kts
2026-05-09 20:34 -8.50454 -48.38309 28966 ft 460 kts
2026-05-09 20:35 -8.47245 -48.38357 29198 ft 462 kts
2026-05-09 20:35 -8.44024 -48.38404 29437 ft 464 kts
2026-05-09 20:35 -8.40789 -48.38452 29679 ft 466 kts
2026-05-09 20:35 -8.37537 -48.38498 29906 ft 468 kts
2026-05-09 20:36 -8.34275 -48.38543 30123 ft 470 kts
2026-05-09 20:36 -8.31004 -48.38587 30353 ft 470 kts 360°
2026-05-09 20:36 -8.27732 -48.38632 30668 ft 468 kts 359°
2026-05-09 20:36 -8.24499 -48.38676 31203 ft 461 kts 359°
2026-05-09 20:37 -8.21301 -48.38720 31541 ft 460 kts 359°
2026-05-09 20:37 -8.18086 -48.38764 31747 ft 462 kts 359°
2026-05-09 20:37 -8.14904 -48.38808 31969 ft 463 kts 359°
2026-05-09 20:37 -8.11685 -48.38852 32293 ft 461 kts 359°
2026-05-09 20:38 -8.08488 -48.38895 32690 ft 458 kts 358°
2026-05-09 20:38 -8.05306 -48.38937 33099 ft 455 kts 358°
2026-05-09 20:38 -8.02143 -48.38980 33465 ft 453 kts 358°
2026-05-09 20:38 -7.98986 -48.39022 33811 ft 452 kts 358°
2026-05-09 20:39 -7.95843 -48.39064 34099 ft 451 kts 358°
2026-05-09 20:39 -7.92702 -48.39106 34313 ft 452 kts 358°
2026-05-09 20:39 -7.89551 -48.39149 34465 ft 454 kts 358°
2026-05-09 20:39 -7.86392 -48.39192 34679 ft 454 kts 357°
2026-05-09 20:40 -7.83230 -48.39234 34939 ft 454 kts 357°
2026-05-09 20:40 -7.80078 -48.39276 35188 ft 453 kts 357°
2026-05-09 20:40 -7.76911 -48.39319 35385 ft 454 kts 357°
2026-05-09 20:40 -7.73778 -48.39361 35578 ft 455 kts 357°
2026-05-09 20:41 -7.70608 -48.39404 35811 ft 455 kts 356°
2026-05-09 20:41 -7.67439 -48.39446 36037 ft 455 kts 356°
2026-05-09 20:41 -7.64274 -48.39489 36219 ft 455 kts 356°
2026-05-09 20:41 -7.61101 -48.39532 36393 ft 457 kts 356°
2026-05-09 20:42 -7.57922 -48.39574 36612 ft 456 kts 356°
2026-05-09 20:42 -7.54745 -48.39617 36845 ft 456 kts 356°
2026-05-09 20:42 -7.48363 -48.39703 36908 ft 460 kts 356°
2026-05-09 20:43 -7.41975 -48.39788 36899 ft 456 kts 356°
2026-05-09 20:43 -7.35691 -48.39871 36899 ft 453 kts 356°
2026-05-09 20:44 -7.29405 -48.39955 36904 ft 451 kts 356°
2026-05-09 20:44 -7.23139 -48.40040 36906 ft 450 kts 356°
2026-05-09 20:45 -7.16869 -48.40124 36909 ft 451 kts 356°
2026-05-09 20:45 -7.10586 -48.40209 36909 ft 452 kts 356°
2026-05-09 20:46 -7.04276 -48.40294 36905 ft 454 kts 356°
2026-05-09 20:46 -6.97950 -48.40378 36911 ft 456 kts 356°
2026-05-09 20:47 -6.91622 -48.40463 36914 ft 458 kts 356°
2026-05-09 20:47 -6.85223 -48.40549 36911 ft 461 kts 356°
2026-05-09 20:48 -6.78798 -48.40635 36905 ft 462 kts 356°
2026-05-09 20:48 -6.72349 -48.40720 36903 ft 463 kts 356°
2026-05-09 20:49 -6.65902 -48.40806 36905 ft 462 kts 356°
2026-05-09 20:49 -6.59517 -48.40891 36903 ft 461 kts 356°
2026-05-09 20:50 -6.53108 -48.40977 36896 ft 460 kts 356°
2026-05-09 20:50 -6.46716 -48.41062 36904 ft 459 kts 356°
2026-05-09 20:51 -6.40332 -48.41147 36908 ft 457 kts 356°
2026-05-09 20:51 -6.33971 -48.41232 36906 ft 456 kts 356°
2026-05-09 20:52 -6.27617 -48.41317 36909 ft 455 kts 356°
2026-05-09 20:52 -6.21284 -48.41402 36907 ft 455 kts 356°
2026-05-09 20:53 -6.14953 -48.41487 36910 ft 455 kts 356°
2026-05-09 20:53 -6.08624 -48.41572 36914 ft 455 kts 356°
2026-05-09 20:54 -6.02326 -48.41656 36908 ft 456 kts 356°
2026-05-09 20:54 -5.95980 -48.41741 36911 ft 456 kts 356°
2026-05-09 20:55 -5.89620 -48.41826 36913 ft 457 kts 356°
2026-05-09 20:55 -5.83253 -48.41911 36913 ft 457 kts 356°
2026-05-09 20:56 -5.73688 -48.42038 36911 ft 459 kts 356°
2026-05-09 20:57 -5.67300 -48.42123 36903 ft 459 kts 356°
2026-05-09 20:57 -5.60908 -48.42208 36914 ft 459 kts 356°
2026-05-09 20:58 -5.54548 -48.42293 36910 ft 460 kts 356°
2026-05-09 20:58 -5.48148 -48.42379 36912 ft 460 kts 356°
2026-05-09 20:59 -5.41734 -48.42465 36913 ft 460 kts 356°
2026-05-09 20:59 -5.35329 -48.42550 36912 ft 460 kts 356°
2026-05-09 21:00 -5.25741 -48.42678 36914 ft 459 kts 356°
2026-05-09 21:00 -5.19386 -48.42763 36914 ft 459 kts 356°
2026-05-09 21:01 -5.13003 -48.42848 36911 ft 459 kts 356°
2026-05-09 21:02 -5.03422 -48.42976 36918 ft 458 kts 357°
2026-05-09 21:02 -4.97038 -48.43063 36927 ft 459 kts 357°
2026-05-09 21:03 -4.90653 -48.43149 36921 ft 459 kts 357°
2026-05-09 21:03 -4.84261 -48.43235 36925 ft 459 kts 357°
2026-05-09 21:04 -4.77917 -48.43321 36933 ft 459 kts 357°
2026-05-09 21:04 -4.71517 -48.43407 36927 ft 459 kts 357°
2026-05-09 21:05 -4.65124 -48.43493 36925 ft 459 kts 357°
2026-05-09 21:05 -4.58721 -48.43579 36926 ft 459 kts 357°
2026-05-09 21:06 -4.52366 -48.43665 36932 ft 459 kts 357°
2026-05-09 21:06 -4.45970 -48.43751 36927 ft 460 kts 357°
2026-05-09 21:07 -4.39569 -48.43838 36926 ft 459 kts 357°
2026-05-09 21:07 -4.33179 -48.43924 36931 ft 459 kts 357°
2026-05-09 21:08 -4.26778 -48.44010 36917 ft 459 kts 357°
2026-05-09 21:08 -4.20422 -48.44096 36924 ft 459 kts 357°
2026-05-09 21:09 -4.14033 -48.44182 36924 ft 459 kts 357°
2026-05-09 21:09 -4.07643 -48.44268 36925 ft 459 kts 357°
2026-05-09 21:10 -4.01256 -48.44354 36923 ft 459 kts 357°
2026-05-09 21:10 -3.94856 -48.44441 36918 ft 459 kts 357°
2026-05-09 21:11 -3.89551 -48.44512 36929 ft 459 kts 357°
2026-05-09 21:12 -3.75676 -48.44700 36402 ft 467 kts 357°
2026-05-09 21:12 -3.73529 -48.44729 36082 ft 465 kts 358°
2026-05-09 21:12 -3.70295 -48.44772 35479 ft 465 kts 358°
2026-05-09 21:12 -3.67062 -48.44815 35040 ft 462 kts 358°
2026-05-09 21:13 -3.63856 -48.44858 34606 ft 459 kts 358°
2026-05-09 21:13 -3.60676 -48.44900 34155 ft 456 kts 358°
2026-05-09 21:13 -3.57507 -48.44942 33687 ft 454 kts 358°
2026-05-09 21:13 -3.54365 -48.44985 33216 ft 451 kts 359°
2026-05-09 21:14 -3.51239 -48.45027 32775 ft 447 kts 359°
2026-05-09 21:14 -3.48140 -48.45076 32378 ft 443 kts 358°
2026-05-09 21:14 -3.45090 -48.45205 32118 ft 435 kts 357°
2026-05-09 21:14 -3.42080 -48.45389 31711 ft 432 kts 356°
2026-05-09 21:15 -3.39089 -48.45591 31310 ft 429 kts 356°
2026-05-09 21:15 -3.36124 -48.45790 30907 ft 426 kts 356°
2026-05-09 21:15 -3.33174 -48.45983 30503 ft 424 kts 357°
2026-05-09 21:15 -3.30232 -48.46168 30076 ft 422 kts 358°
2026-05-09 21:16 -3.27344 -48.46344 29614 ft 420 kts 357°
2026-05-09 21:16 -3.24436 -48.46518 29164 ft 417 kts 358°
2026-05-09 21:16 -3.21549 -48.46688 28714 ft 414 kts 358°
2026-05-09 21:16 -3.18674 -48.46858 28287 ft 411 kts 358°
2026-05-09 21:17 -3.15833 -48.47025 27864 ft 408 kts 358°
2026-05-09 21:17 -3.13008 -48.47191 27443 ft 405 kts 358°
2026-05-09 21:17 -3.10199 -48.47357 27035 ft 402 kts 358°
2026-05-09 21:17 -3.07414 -48.47521 26629 ft 399 kts 358°
2026-05-09 21:18 -3.04650 -48.47684 26233 ft 396 kts 358°
2026-05-09 21:18 -3.01905 -48.47846 25840 ft 394 kts 358°
2026-05-09 21:18 -2.99178 -48.48007 25452 ft 391 kts 358°
2026-05-09 21:18 -2.96468 -48.48166 25066 ft 389 kts 358°
2026-05-09 21:19 -2.88471 -48.48638 23953 ft 382 kts 359°
2026-05-09 21:19 -2.85825 -48.48794 23586 ft 380 kts 359°
2026-05-09 21:20 -2.83190 -48.48949 23166 ft 378 kts 359°
2026-05-09 21:20 -2.80574 -48.49104 22735 ft 376 kts 359°
2026-05-09 21:20 -2.77969 -48.49257 22307 ft 374 kts 359°
2026-05-09 21:20 -2.75382 -48.49409 21884 ft 372 kts 359°
2026-05-09 21:21 -2.72802 -48.49562 21469 ft 370 kts 359°
2026-05-09 21:21 -2.70237 -48.49713 21059 ft 368 kts 359°
2026-05-09 21:21 -2.67682 -48.49863 20655 ft 366 kts 359°
2026-05-09 21:21 -2.65147 -48.50013 20257 ft 364 kts 359°
2026-05-09 21:22 -2.62622 -48.50161 19864 ft 363 kts 359°
2026-05-09 21:22 -2.60109 -48.50310 19475 ft 361 kts 359°
2026-05-09 21:22 -2.57604 -48.50457 19092 ft 359 kts 359°
2026-05-09 21:22 -2.55118 -48.50604 18709 ft 355 kts 359°
2026-05-09 21:23 -2.52678 -48.50748 18317 ft 346 kts 359°
2026-05-09 21:23 -2.50296 -48.50889 17877 ft 339 kts 359°
2026-05-09 21:23 -2.47960 -48.51027 17365 ft 334 kts 359°
2026-05-09 21:23 -2.45688 -48.51161 16873 ft 329 kts 359°
2026-05-09 21:24 -2.43414 -48.51296 16389 ft 325 kts 359°
2026-05-09 21:24 -2.41163 -48.51429 15896 ft 322 kts 359°
2026-05-09 21:24 -2.38916 -48.51560 15447 ft 325 kts 359°
2026-05-09 21:24 -2.36645 -48.51693 14984 ft 328 kts 359°
2026-05-09 21:25 -2.34356 -48.51828 14580 ft 329 kts 359°
2026-05-09 21:25 -2.32071 -48.51962 14242 ft 328 kts 359°
2026-05-09 21:25 -2.29793 -48.52097 13905 ft 327 kts 359°
2026-05-09 21:25 -2.27525 -48.52231 13545 ft 326 kts 359°
2026-05-09 21:26 -2.25257 -48.52365 13166 ft 325 kts 359°
2026-05-09 21:26 -2.23006 -48.52498 12784 ft 324 kts 359°
2026-05-09 21:26 -2.20788 -48.52629 12423 ft 323 kts 359°
2026-05-09 21:26 -2.18552 -48.52761 12060 ft 322 kts 359°
2026-05-09 21:27 -2.16319 -48.52892 11702 ft 321 kts 359°
2026-05-09 21:27 -2.14102 -48.53023 11442 ft 316 kts 359°
2026-05-09 21:27 -2.11939 -48.53152 11187 ft 306 kts 359°
2026-05-09 21:27 -2.09843 -48.53276 10941 ft 297 kts 359°
2026-05-09 21:28 -2.07798 -48.53397 10707 ft 293 kts 359°
2026-05-09 21:28 -2.05771 -48.53516 10470 ft 290 kts 359°
2026-05-09 21:28 -2.03761 -48.53634 10238 ft 287 kts 359°
2026-05-09 21:28 -2.01774 -48.53751 9950 ft 287 kts 359°
2026-05-09 21:29 -1.99775 -48.53868 9589 ft 289 kts 359°
2026-05-09 21:29 -1.97792 -48.53985 9249 ft 289 kts 360°
2026-05-09 21:29 -1.95759 -48.54104 8928 ft 289 kts 359°
2026-05-09 21:29 -1.93758 -48.54222 8625 ft 288 kts 359°
2026-05-09 21:30 -1.91795 -48.54339 8385 ft 285 kts 360°
2026-05-09 21:30 -1.89827 -48.54455 8134 ft 282 kts 360°
2026-05-09 21:30 -1.87881 -48.54573 7894 ft 279 kts 359°
2026-05-09 21:30 -1.85948 -48.54691 7664 ft 277 kts 359°
2026-05-09 21:31 -1.84030 -48.54806 7413 ft 275 kts 360°
2026-05-09 21:31 -1.82129 -48.54919 7175 ft 272 kts 359°
2026-05-09 21:31 -1.80245 -48.55030 6939 ft 270 kts 360°
2026-05-09 21:31 -1.78371 -48.55141 6705 ft 268 kts 360°
2026-05-09 21:32 -1.76516 -48.55250 6474 ft 266 kts 360°
2026-05-09 21:32 -1.74675 -48.55357 6240 ft 264 kts 360°
2026-05-09 21:32 -1.72844 -48.55464 5986 ft 262 kts 360°
2026-05-09 21:32 -1.71026 -48.55570 5748 ft 261 kts
2026-05-09 21:33 -1.69222 -48.55676 5506 ft 259 kts
2026-05-09 21:33 -1.67422 -48.55780 5264 ft 258 kts
2026-05-09 21:33 -1.65652 -48.55881 5031 ft 257 kts
2026-05-09 21:33 -1.63872 -48.55984 4789 ft 256 kts
2026-05-09 21:34 -1.62098 -48.56088 4576 ft 253 kts
2026-05-09 21:34 -1.60366 -48.56192 4505 ft 244 kts 360°
2026-05-09 21:34 -1.58736 -48.56567 4445 ft 240 kts 339°
2026-05-09 21:34 -1.57253 -48.57281 4279 ft 236 kts 338°
2026-05-09 21:35 -1.55791 -48.57967 4088 ft 228 kts 338°
2026-05-09 21:35 -1.54371 -48.58621 3849 ft 222 kts 339°
2026-05-09 21:35 -1.52986 -48.59255 3615 ft 216 kts 338°
2026-05-09 21:35 -1.51617 -48.59837 3317 ft 212 kts 348°
2026-05-09 21:36 -1.50250 -48.59716 3043 ft 190 kts 33°
2026-05-09 21:36 -1.49239 -48.58927 2816 ft 183 kts 42°
2026-05-09 21:36 -1.48295 -48.58106 2605 ft 171 kts 46°
2026-05-09 21:36 -1.47481 -48.57315 2369 ft 155 kts 48°
2026-05-09 21:37 -1.46757 -48.56585 2187 ft 145 kts 49°
2026-05-09 21:37 -1.46059 -48.55875 2006 ft 146 kts 47°
2026-05-09 21:37 -1.45350 -48.55155 1817 ft 144 kts 49°
2026-05-09 21:37 -1.44647 -48.54441 1635 ft 143 kts 49°
2026-05-09 21:38 -1.43960 -48.53743 1451 ft 139 kts 49°
2026-05-09 21:38 -1.43280 -48.53051 1269 ft 140 kts 47°
2026-05-09 21:38 -1.42600 -48.52360 1107 ft 140 kts 46°
2026-05-09 21:38 -1.41915 -48.51664 906 ft 141 kts 46°
2026-05-09 21:39 -1.41234 -48.50972 733 ft 137 kts 46°
2026-05-09 21:39 -1.40572 -48.50300 578 ft 135 kts 45°
2026-05-09 21:39 -1.39890 -48.49607 389 ft 144 kts 48°
2026-05-09 21:39 -1.39207 -48.48913 204 ft 140 kts 52°
2026-05-09 21:40 -1.38540 -48.48227 45 ft 126 kts 46°
2026-05-09 21:40 -1.38095 -48.47769 48 ft 44 kts 66°
2026-05-09 21:40 -1.38010 -48.47691 47 ft 9 kts 36°
2026-05-09 21:40 -1.37974 -48.47658 46 ft 6 kts 57°
2026-05-09 21:41 -1.38000 -48.47620 47 ft 12 kts 175°
2026-05-09 21:41 -1.38083 -48.47623 48 ft 12 kts 184°
2026-05-09 21:41 -1.38163 -48.47633 50 ft 11 kts 187°
2026-05-09 21:41 -1.38253 -48.47643 51 ft 15 kts 186°
2026-05-09 21:42 -1.38371 -48.47654 48 ft 19 kts 185°
2026-05-09 21:42 -1.38510 -48.47666 53 ft 21 kts 184°
2026-05-09 21:42 -1.38640 -48.47689 50 ft 17 kts 214°
2026-05-09 21:42 -1.38688 -48.47789 51 ft 15 kts 204°
2026-05-09 21:43 -1.38775 -48.47813 50 ft 12 kts 220°
2026-05-09 21:43 -1.38832 -48.47867 52 ft 10 kts 224°
2026-05-09 21:43 -1.38859 -48.47893 49 ft 1 kts 223°
2026-05-09 21:43 -1.38860 -48.47894 49 ft 0 kts 223°